Погода в Ялтуровске

Погода в Ялтуровске : погода сейчас, прогноз погоды и архив. Всё, что Вы хотите узнать о погоде в Ялтуровске!

Хотите узнать прогноз погоды в Ялтуровске? Тогда Вам сюда: Погода в Ялтуровске

Поиск расширенной информации на нашем сайте:

Другие новости

Новости СМИ2

Главная страница сайта

Новости сайта

03.07.2017

Напоминаем, что на нашем специализированном сайте Метеоцентр.Азия вы можете получить высокодетализированные автоматические прогнозы погоды по пунктам России, СНГ и мира в авиационном формате (включающие направление и скорость ветра, видимость, явления погоды, количество и форму облачности, нижнюю и верхнюю границу облачности).


Погода в Ялтуровске - сегодня

Время (UTC), дата Ветер
(°,м/с) 
Видим.   Явления Облачность Т
(°С)
Тd
(°С)
f(%) Тe
(°С)
Pmin
(гПа)
dP
(гПа)
Po
(мм)
O2
(г/м3)
Тmin Tmax R s Состояние
почвы
00 18.05.18 280 (З) 20000 м    6/0 средняя 
[Ac trans]
+7.6 -3.5 45 +7  1008.4  -1.1  751  295           
03 18.05.18 020 (С) 8-12{13}  20000 м    10/3 600 м кучево-дожд., средняя, верхняя 
[Cb calv|Ac trans|Ci sp]
+6.8 -0.4 60 +4  1011.1  2.8  753  296  +6.8         
12 18.05.18 020 (С) 5{12}  20000 м    ясно 
+7.7 -9.7 28 +6  1020.4  1.9  760  299           
18 18.05.18 тихо ()   20000 м    ясно 
+0.5 -7.6 55 +1  1024.9  1.9  763  308           
21 18.05.18 120 (ЮВ) 20000 м    ясно 
-2.3 -6 76 -2  1026.3  1.4  764  311           
00 19.05.18 тихо ()   4000 м  дымка  6/0 верхняя 
[Ci fib]
-3.8 -6.2 83 -4  1027.5  1.1  765  313           
03 19.05.18 190 (Ю) 20000 м    8/0 верхняя 
[Ci fib]
+4.2 -8 41 +2  1027.9  0.6  765  304  -4.4        влажная 
06 19.05.18 170 (Ю) 20000 м    4/0 верхняя 
[Ci fib]
+9 -10.9 23 +8  1026.5  -1.3  764  299           
12 19.05.18 200 (Ю) 5{14}  20000 м    10/0 средняя 
[Ac As]
+13.1 -9.7 19 +12  1022.7  -2  761  294           
15 19.05.18 140 (ЮВ) 4000 м  слаб. дождь  10/10 600 м 
[Sc]
+7.6 +1 63 +7  1020.9  -1.8  760  298    +13.5     
18 19.05.18 160 (Ю) 20000 м  {дождь}  10/0 средняя 
[Ac As]
+9.6 -2.3 43 +8  1018.6  -2.3  758  295           
21 19.05.18 160 (Ю) 20000 м    6/0 средняя 
[Ac As]
+10.3 -3.3 38 +9  1015.4  -2.3  756  294           
00 20.05.18 190 (Ю) 20000 м    10/0 средняя 
[Ac As]
+10.7 -0.6 45 +10  1013.2  -2.2  754  293           
03 20.05.18 170 (Ю) 4000 м  слаб. дождь  10/0 средняя 
[Ac As]
+11.6 +5.8 68 +10  1011.5  -1.7  753  290  +7.6    0.3     
06 20.05.18 200 (Ю) 20000 м  {дождь}  6/0 верхняя 
[Ci sp]
+23.1 +6.9 35 +23  1010.5  -0.7  753  278           
12 20.05.18 260 (З) 5{15}  20000 м    10/6 600 м кучево-дожд., средняя, верхняя 
[Cb calv|Ac trans|Ci sp]
+28.7 +4.2 21 +29  1006.7  -1.7  750  273           
15 20.05.18 200 (Ю) 3{20}  20000 м  {ливн. осадки}  10/6 600 м кучево-дожд., средняя, верхняя 
[Cb calv|Ac trans|Ci sp]
+20 +8.5 47 +20  1008.2  1.2  751  280    +29.8  0.0     
18 20.05.18 220 (ЮЗ) 20000 м  {ливн. осадки}  8/4 600 м кучево-дожд., верхняя 
[Cb calv|Ci sp]
+19.7 +7.4 45 +20  1007.7  -0.5  750  281           
21 20.05.18 240 (ЮЗ) 20000 м    3/0 верхняя 
[Ci sp]
+17.7 +7.1 50 +18  1008.5  0.7  751  283           
00 21.05.18 250 (З) 20000 м    3/0 средняя 
[Ac trans]
+15.2 +7.7 61 +15  1009.6  1.1  752  286           
03 21.05.18 280 (З) 20000 м    8/0 средняя 
[Ac trans]
+16.2 +10.6 69 +18  1011.8  2.2  753  285  +14.7         
09 21.05.18 340 (С) 20000 м  {ливн. осадки}  10/10 600 м кучево-дожд. 
[Cb calv]
+14.8 +6 56 +15  1016.7  1.8  757  288           
15 21.05.18 360 (С) 5{11}  20000 м    10/10 600 м кучево-дожд. 
[Cb calv]
+11.2 +1.9 53 +10  1019.1  1.2  759  293    +17.4  0.0     
18 21.05.18 330 (СЗ) 20000 м    10/10 600 м кучево-дожд. 
[Cb calv]
+7.2 +2.4 72 +7  1020.1  0.8  759  298           
21 21.05.18 330 (СЗ) 20000 м    10/10 600 м 
[Sc diur, vesp]
+6.7 +2.9 77 +7  1020  0.1  759  298           
Время (UTC), дата Ветер
(°,м/с) 
Видим.   Явления Облачность Т
(°С)
Тd
(°С)
f(%) Тe
(°С)
Pmin
(гПа)
dP
(гПа)
Po
(мм)
O2
(г/м3)
Тmin Tmax R s Состояние
почвы

Для получения пояснительной информации подведите курсор к названию столбца.

ПОГОДА в Ялтуровске - архив

Всё, что Вы хотите узнать о погоде в Ялтуровске - удобно и подробно!

Выберите нужную дату (начиная с 1 января 2015* года) и нажмите кнопку "Найти".
Будут отображены архивные сводки погоды по пункту Ялтуровск, начиная с указанной даты.


Отображать данные в формате CSV (для использования в таблицах Excel)


Внимание! Наш архив погоды предназначен исключительно для личного некоммерческого использования в познавательных целях. Если Вам необходимы официальные справки о состоянии погоды (для производственных, юридических, коммерческих и т.п. целей), обращайтесь в органы Росгидромета.

*Примечание: данная дата относится к архиву по метеостанциям СССР (Россия, СНГ, Балтия).
Архив по метеостанциям Зарубежной Европы и Азии (кроме Китая) хранится 10 дней, по другим регионам земного шара (Китай, Африка, Америка, Австралия, Океания) - 1 день.

Ялтуровск - район местоположения метеостанции


Название, широта, долгота, высота метеостанции:
Ялтуровск 56.7°ш. 66.3°д. 61 м над ур. моря [Российская Федерация]

Дополнительная информация

В oтличие oт бoльшинства пoгoдных сайтoв мы публикуем пoдрoбную метеoинфoрмацию в детальнoм прoфессиoнальнoм фoрмате.

Характеристики температуры и влажнoсти вoздуха измеряются на высoте 2 м в тени вдали oт зданий и деревьев.
Скoрoсть ветра измеряется на высoте 10 м (на урoвне рoста челoвека скoрoсть ветра ниже в 1.5-2 раза). Если метеoстанция нахoдится в гoрoде или в лесу, тo скoрoсть ветра занижена на 2-4 м/с пo сравнению с oткрытым местoм. Скoрoсть ветра над акватoриями крупных рек и oзёр, а также на вершинах хoлмoв на 2-5 м/с выше, чем в oбычных услoвиях.
Атмoсфернoе давление в разных тoчках местнoсти мoжет значительнo oтличаться oт давления на метеoстанции, в зависимoсти oт услoвий рельефа (при пoдъёме на 10 м давление пoнижается примернo на 1 мм рт.ст.).